This is the latest recevied weather packets stored in our database for station/object K3JSE-4. If no packets are shown the sender has not sent any weather packets the latest 10 day(s).
| Time | Temp. | Humidity | Pressure | Rain* | Wind** | Luminosity | Snow |
|---|---|---|---|---|---|---|---|
| 1777559143 | 12.22° C | 80% | 1009.6 hPa | 0 mm | - | - | - |
| 1777558843 | 12.78° C | 82% | 1009.4 hPa | 0 mm | - | - | - |
| 1777558543 | 12.78° C | 86% | 1009.5 hPa | 0 mm | - | - | - |
| 1777558243 | 11.67° C | 84% | 1009.3 hPa | 0 mm | - | - | - |
| 1777557943 | 11.67° C | 85% | 1009.2 hPa | 0 mm | - | - | - |
| 1777557643 | 11.67° C | 84% | 1009.1 hPa | 0 mm | - | - | - |
| 1777557343 | 11.67° C | 86% | 1009 hPa | 0 mm | - | - | - |
| 1777557043 | 11.67° C | 86% | 1008.8 hPa | 0 mm | - | - | - |
| 1777556743 | 11.11° C | 87% | 1008.7 hPa | 0 mm | - | - | - |
| 1777556443 | 11.11° C | 88% | 1008.6 hPa | 0 mm | - | - | - |
| 1777556143 | 11.11° C | 87% | 1008.6 hPa | 0 mm | - | - | - |
| 1777555843 | 11.11° C | 89% | 1008.5 hPa | 0 mm | - | - | - |
| 1777555543 | 10.56° C | 88% | 1008.5 hPa | 0 mm | - | - | - |
| 1777555243 | 11.11° C | 89% | 1008.6 hPa | 0 mm | - | - | - |
| 1777554943 | 11.11° C | 90% | 1008.6 hPa | 0 mm | - | - | - |
| 1777554643 | 10.56° C | 90% | 1008.6 hPa | 0 mm | - | - | - |
| 1777554343 | 10.56° C | 91% | 1008.6 hPa | 0 mm | - | - | - |
| 1777554043 | 10.56° C | 91% | 1008.5 hPa | 0 mm | - | - | - |
| 1777553743 | 10.56° C | 92% | 1008.6 hPa | 0 mm | - | - | - |
| 1777553443 | 10.56° C | 92% | 1008.7 hPa | 0 mm | - | - | - |
| 1777553143 | 10.56° C | 92% | 1008.7 hPa | 0 mm | - | - | - |
| 1777552843 | 10.56° C | 93% | 1008.7 hPa | 0 mm | - | - | - |
| 1777552544 | 10.56° C | 93% | 1008.7 hPa | 0 mm | - | - | - |
| 1777552244 | 10.56° C | 93% | 1008.7 hPa | 0 mm | - | - | - |
| 1777551944 | 10.56° C | 93% | 1008.7 hPa | 0 mm | - | - | - |
* Rain latest hour (hover to see other rain measurements)
** Current wind speed in m/s (hover to see current wind gust speed)